Omaha, NE

6:50 PM CST on December 05, 2016 (GMT -0600)
Millard Municipal

Weather History for KMLE - September, 2013

Change the Weather History Date:

Saturday, September 7, 2013

  Actual Average (KOMA) Record (KOMA)
Temperature  
Mean Temperature 78 °F 69 °F  
Max Temperature 89 °F 81 °F 103 °F (1939)
Min Temperature 69 °F 58 °F 43 °F (1956)
Degree Days  
Heating Degree Days 0 1  
Month to date heating degree days 7  
Since 1 July heating degree days 15  
Cooling Degree Days 14 6  
Month to date cooling degree days 45  
Year to date cooling degree days 1025  
Growing Degree Days 28 (Base 50)    
Moisture  
Dew Point 68 °F    
Average Humidity 69    
Maximum Humidity 90    
Minimum Humidity 46    
Precipitation  
Precipitation 0.00 in 0.10 in 6.24 in (1965)
Month to date precipitation 0.70  
Year to date precipitation 23.81  
Snow  
Snow 0.00 in 0.00 in - ()
Month to date snowfall 0.0  
Since 1 July snowfall 0.0  
Snow Depth -    
Sea Level Pressure  
Sea Level Pressure 29.90 in    
Wind  
Wind Speed 5 mph (SSE)    
Max Wind Speed 13 mph    
Max Gust Speed 16 mph    
Visibility 10 miles    
Events      
T = Trace of Precipitation, MM = Missing Value Source: NWS Daily Summary

Daily Weather History Graph

Daily Weather History Graph

Search for Another Location

Airport or City:

Trip Planner

Search our weather history database for the weather conditions in past years. The results will help you decide how hot, cold, wet, or windy it might be!

Date:

Astronomy

Sep. 07, 2013 Rise Set
Actual Time 6:57 AM CDT 7:46 PM CDT
Civil Twilight 6:29 AM CDT 8:14 PM CDT
Nautical Twilight 5:55 AM CDT 8:47 PM CDT
Astronomical Twilight 5:21 AM CDT 9:22 PM CDT
Moon 9:14 AM CDT (9/7) 8:43 PM CDT (9/7)
Length of Visible Light 13h 45m
Length of Day
12h 49m
Waxing Crescent, 5% of the Moon is Illuminated
Sep 7
Waxing Crescent
Sep 12
First Quarter
Sep 19
Full
Sep 26
Last Quarter
Oct 4
New

Hourly Weather History & Observations

Time (CDT) Temp. Heat Index Dew Point Humidity Pressure Visibility Wind Dir Wind Speed Gust Speed Precip Events Conditions
12:15 AM 79.2 °F - 66.7 °F 66% 29.92 in 10.0 mi SSE 9.2 mph - N/A   Clear
12:35 AM 78.3 °F - 66.7 °F 68% 29.92 in 10.0 mi SSE 6.9 mph - N/A   Clear
12:55 AM 78.3 °F - 66.6 °F 67% 29.92 in 10.0 mi SSE 4.6 mph - N/A   Clear
1:15 AM 77.9 °F - 66.6 °F 68% 29.92 in 10.0 mi SSE 5.8 mph - N/A   Clear
1:35 AM 77.7 °F - 66.6 °F 68% 29.93 in 10.0 mi SSE 5.8 mph - N/A   Clear
1:55 AM 77.4 °F - 66.6 °F 69% 29.93 in 10.0 mi SSE 6.9 mph - N/A   Clear
2:15 AM 76.5 °F - 66.6 °F 71% 29.93 in 10.0 mi SSE 5.8 mph - N/A   Clear
2:35 AM 75.4 °F - 66.6 °F 74% 29.92 in 10.0 mi SE 5.8 mph - N/A   Clear
2:55 AM 75.2 °F - 66.6 °F 74% 29.92 in 10.0 mi SE 4.6 mph - N/A   Clear
3:15 AM 74.5 °F - 66.6 °F 76% 29.92 in 10.0 mi SE 4.6 mph - N/A   Clear
3:35 AM 74.5 °F - 66.6 °F 76% 29.91 in 10.0 mi SE 4.6 mph - N/A   Clear
3:55 AM 74.1 °F - 66.6 °F 77% 29.91 in 10.0 mi SE 4.6 mph - N/A   Clear
4:15 AM 73.6 °F - 66.6 °F 79% 29.91 in 10.0 mi SE 4.6 mph - N/A   Clear
4:55 AM 72.7 °F - 66.4 °F 81% 29.91 in 10.0 mi SE 5.8 mph - N/A   Clear
5:15 AM 72.0 °F - 66.2 °F 82% 29.91 in 10.0 mi SE 4.6 mph - N/A   Clear
5:35 AM 70.9 °F - 66.2 °F 85% 29.90 in 10.0 mi SE 5.8 mph - N/A   Clear
5:55 AM 70.3 °F - 66.0 °F 86% 29.90 in 10.0 mi SE 5.8 mph - N/A   Clear
6:15 AM 70.7 °F - 66.2 °F 86% 29.90 in 10.0 mi SSE 4.6 mph - N/A   Clear
6:35 AM 70.2 °F - 66.2 °F 87% 29.90 in 10.0 mi SE 5.8 mph - N/A   Clear
6:55 AM 70.2 °F - 66.2 °F 87% 29.89 in 10.0 mi NNE 5.8 mph - N/A   Clear
7:15 AM 69.8 °F - 66.4 °F 89% 29.89 in 10.0 mi SE 5.8 mph - N/A   Clear
7:35 AM 71.1 °F - 66.7 °F 86% 29.89 in 10.0 mi SE 6.9 mph - N/A   Clear
7:55 AM 73.0 °F - 66.9 °F 81% 29.89 in 10.0 mi SSE 4.6 mph - N/A   Clear
8:15 AM 75.2 °F - 66.7 °F 75% 29.89 in 10.0 mi Calm Calm - N/A   Clear
8:35 AM 76.6 °F - 66.7 °F 71% 29.89 in 10.0 mi South 4.6 mph - N/A   Clear
8:55 AM 78.1 °F - 67.1 °F 69% 29.89 in 10.0 mi South 8.1 mph - N/A   Clear
9:15 AM 78.6 °F - 66.9 °F 67% 29.90 in 10.0 mi SSW 3.5 mph - N/A   Clear
9:35 AM 80.1 °F 82.3 °F 66.9 °F 64% 29.90 in 10.0 mi South 3.5 mph - N/A   Clear
9:55 AM 82.8 °F 85.5 °F 67.6 °F 60% 29.90 in 10.0 mi WSW 4.6 mph - N/A   Clear
10:15 AM 82.2 °F 84.4 °F 66.2 °F 58% 29.90 in 10.0 mi SSW 6.9 mph - N/A   Clear
10:35 AM 83.1 °F 85.4 °F 66.4 °F 57% 29.90 in 10.0 mi SW 4.6 mph - N/A   Clear
10:55 AM 83.8 °F 86.0 °F 66.0 °F 55% 29.90 in 10.0 mi SSW 8.1 mph - N/A   Clear
11:15 AM 85.3 °F 87.4 °F 65.7 °F 52% 29.90 in 10.0 mi WSW 5.8 mph - N/A   Clear
11:35 AM 86.2 °F 88.2 °F 65.3 °F 50% 29.90 in 10.0 mi West 6.9 mph - N/A   Clear
11:55 AM 86.9 °F 88.6 °F 64.8 °F 48% 29.90 in 10.0 mi Calm Calm - N/A   Clear
12:15 PM 87.8 °F 89.4 °F 64.9 °F 46% 29.91 in 10.0 mi WSW 5.8 mph - N/A   Clear
12:35 PM 87.6 °F 89.4 °F 65.3 °F 47% 29.90 in 10.0 mi SW 3.5 mph - N/A   Clear
12:55 PM 87.3 °F 89.2 °F 65.5 °F 48% 29.91 in 10.0 mi West 6.9 mph - N/A   Clear
1:15 PM 88.3 °F 90.9 °F 66.4 °F 48% 29.91 in 10.0 mi WSW 6.9 mph - N/A   Clear
1:35 PM 88.0 °F 90.7 °F 66.6 °F 49% 29.93 in 10.0 mi West 6.9 mph 16.1 mph N/A   Clear
1:55 PM 86.2 °F 88.4 °F 66.4 °F 51% 29.91 in 10.0 mi Calm Calm - N/A   Clear
2:15 PM 84.7 °F 87.9 °F 68.2 °F 57% 29.91 in 10.0 mi North 3.5 mph - N/A   Clear
2:35 PM 83.7 °F 87.0 °F 68.5 °F 60% 29.87 in 10.0 mi ESE 4.6 mph - N/A   Clear
2:55 PM 84.4 °F 87.3 °F 67.5 °F 57% 29.86 in 10.0 mi ESE 4.6 mph - N/A   Clear
3:15 PM 85.1 °F 88.2 °F 68.0 °F 56% 29.86 in 10.0 mi ENE 4.6 mph - N/A   Clear
3:35 PM 84.7 °F 88.2 °F 68.7 °F 58% 29.88 in 10.0 mi WNW 11.5 mph - N/A   Clear
3:55 PM 82.4 °F 86.5 °F 70.5 °F 67% 29.89 in 10.0 mi WNW 12.7 mph - N/A   Clear
4:15 PM 83.5 °F 88.2 °F 70.9 °F 66% 29.89 in 10.0 mi NW 9.2 mph - N/A   Clear
4:35 PM 86.0 °F 91.5 °F 71.2 °F 61% 29.89 in 10.0 mi NNW 3.5 mph - N/A   Clear
4:55 PM 86.5 °F 91.8 °F 70.7 °F 59% 29.89 in 10.0 mi NNW 5.8 mph - N/A   Clear
5:15 PM 86.4 °F 91.4 °F 70.7 °F 59% 29.89 in 10.0 mi NNW 9.2 mph - N/A   Clear
5:35 PM 86.4 °F 91.1 °F 70.2 °F 58% 29.89 in 10.0 mi North 4.6 mph - N/A   Clear
5:55 PM 86.4 °F 91.8 °F 70.9 °F 60% 29.89 in 10.0 mi North 5.8 mph - N/A   Clear
6:15 PM 86.5 °F 91.8 °F 70.7 °F 59% 29.89 in 10.0 mi North 5.8 mph - N/A   Clear
6:35 PM 86.2 °F 91.8 °F 71.2 °F 61% 29.89 in 10.0 mi North 5.8 mph - N/A   Clear
6:55 PM 84.7 °F 91.0 °F 72.5 °F 67% 29.89 in 10.0 mi NNE 3.5 mph - N/A   Clear
7:15 PM 82.9 °F 88.3 °F 72.1 °F 70% 29.90 in 10.0 mi North 4.6 mph - N/A   Clear
7:35 PM 81.7 °F 86.3 °F 72.0 °F 72% 29.90 in 10.0 mi North 3.5 mph - N/A   Clear
7:55 PM 81.5 °F 85.7 °F 71.2 °F 71% 29.90 in 10.0 mi Calm Calm - N/A   Clear
8:15 PM 80.6 °F 84.4 °F 71.2 °F 73% 29.90 in 10.0 mi Calm Calm - N/A   Clear
8:35 PM 79.9 °F - 71.8 °F 76% 29.91 in 10.0 mi Calm Calm - N/A   Clear
8:55 PM 79.5 °F - 72.1 °F 78% 29.91 in 10.0 mi Calm Calm - N/A   Clear
9:15 PM 79.2 °F - 72.3 °F 79% 29.91 in 10.0 mi Calm Calm - N/A   Clear
9:35 PM 79.0 °F - 72.5 °F 80% 29.91 in 10.0 mi Calm Calm - N/A   Clear
9:55 PM 78.8 °F - 72.5 °F 81% 29.91 in 10.0 mi Calm Calm - N/A   Clear
10:15 PM 78.8 °F - 72.3 °F 80% 29.91 in 10.0 mi Calm Calm - N/A   Clear
10:35 PM 78.3 °F - 72.1 °F 81% 29.91 in 7.0 mi Calm Calm - N/A   Clear
10:55 PM 77.9 °F - 71.8 °F 81% 29.92 in 10.0 mi Calm Calm - N/A   Clear
11:15 PM 76.6 °F - 71.8 °F 85% 29.92 in 10.0 mi Calm Calm - N/A   Clear
11:35 PM 75.6 °F - 72.0 °F 89% 29.92 in 10.0 mi Calm Calm - N/A   Clear
11:55 PM 75.2 °F - 72.0 °F 90% 29.92 in 10.0 mi Calm Calm - N/A   Clear